Location: Unspecified
(0.0000°N, 0.0000°E)
Time: 17:46:35
(UTC+00:00)

SRMSAT - Pass Details

Date: 22 July 2019
Orbit: 848 x 865 km, 20.0° (Epoch: 07 December)

Event Time Altitude Azimuth Distance (km) Brightness Sun altitude
Exits shadow 02:56:41 16° 78° (ENE) 2,093 ? -43.7°
Drops below altitude 10° 02:57:52 10° 84° (E) 2,460 ? -43.4°
Sets 03:00:38 0° 93° (E) 3,395 ? -42.8°
